Regional Weather Roundup
Issued by NWS

Home | Current Version | Previous Version | Text Only | Print | Product List | Glossary On
Versions: 1 2 3 4 5 6 7 8 9 10 11 12 13 14 15 16 17 18 19 20 21 22 23 24 25 26 27 28 29 30 31 32 33 34 35 36 37 38 39 40 41 42 43 44 45 46 47 48 49 50
000
ASUS44 KJAN 301010
RWRMS

MISSISSIPPI HOURLY WEATHER ROUNDUP
NATIONAL WEATHER SERVICE JACKSON MS
500 AM CDT SAT MAY 30 2015

NOTE: "FAIR: INDICATES FEW OR NO CLOUDS BELOW 12,000 FEET WITH NO
SIGNIFICANT WEATHER AND/OR OBSTRUCTIONS TO VISIBILITY.

MSZ001>002-007>008-010>013-018>021-025>028-034>036-301100-
NORTHWEST MISSISSIPPI

CITY           SKY/WX    TMP DP  RH WIND       PRES   REMARKS
CLARKSDALE     MOCLDY    72  66  83 CALM      29.99S
CLEVELAND      FAIR      70  69  98 S8        29.99R
GREENWOOD      CLEAR     69  65  86 S5        30.01S
GREENVILLE     PTCLDY    70  68  93 S10       29.98S
OLIVE BRANCH   PTCLDY    70  70 100 S8        29.99S
OXFORD         FAIR      68  66  94 S6        30.03R
TUNICA         CLOUDY    70  66  88 SW7       29.99R
$$

MSZ003>006-009-014>017-022>024-029>033-037>039-301100-
NORTHEAST MISSISSIPPI

CITY           SKY/WX    TMP DP  RH WIND       PRES   REMARKS
COLUMBUS AFB   MOCLDY    70  69  95 S6        30.05S
CORINTH        FAIR      70  66  88 CALM      30.02R
GOLDN TRIANGLE MOCLDY    70  64  83 S7        30.05R
STARKVILLE     FAIR      68  66  94 CALM      30.05R
TUPELO         MOCLDY    71  67  87 SW6       30.03S
$$

MSZ040-058-301100-
CENTRAL MISSISSIPPI

CITY           SKY/WX    TMP DP  RH WIND       PRES   REMARKS
JACKSON INTL   CLEAR     70  68  93 SE6       30.04S
JACKSON HAWKNS CLEAR     71  69  93 S7        30.04S
MERIDIAN KEY   PTCLDY    66  65  96 CALM      30.07R FOG
MERIDIAN NAS   PTCLDY    68  66  93 SE3       30.07S
RAYMOND        FAIR      72  66  83 SE5       30.03S
VICKSBURG      PTCLDY    72  70  93 S7        30.02R
$$

MSZ059>079-301100-
SOUTH MISSISSIPPI

CITY           SKY/WX    TMP DP  RH WIND       PRES   REMARKS
BROOKHAVEN     FAIR      70  70 100 CALM      30.07R FOG
HATTIESBURG    FOG       67  67 100 CALM      30.07S VSB 1/4
MCCOMB         PTCLDY    69  68  96 CALM      30.05S FOG
NATCHEZ        PTCLDY    70  68  94 S3        30.03S
PINE BELT      CLEAR     66  63  88 CALM      30.08R
$$

MSZ080>082-301100-
COASTAL MISSISSIPPI

CITY           SKY/WX    TMP DP  RH WIND       PRES   REMARKS
BILOXI         MOCLDY    74  72  93 E5        30.04S
PASCAGOULA     PTCLDY    66  66 100 CALM      30.06R FOG
GULFPORT       CLEAR     72  69  90 N3        30.04R
$$


USA.gov is the U.S. government's official web portal to all federal, state and local government web resources and services.